Regional Weather Roundup
Issued by NWS

Home | Current Version | Previous Version | Graphics & Text | Print | Product List | Glossary On
Versions: 1 2 3 4 5 6 7 8 9 10 11 12 13 14 15 16 17 18 19 20 21 22 23 24 25 26 27 28 29 30 31 32 33 34 35 36 37 38 39 40 41 42 43 44 45 46 47 48 49 50
000
ASUS43 KDTX 072210
RWRMI
MICHIGAN HOURLY REGIONAL WEATHER ROUNDUP
NATIONAL WEATHER SERVICE DETROIT/PONTIAC MI
500 PM EST WED DEC 07 2016

NOTE: "FAIR" INDICATES FEW OR NO CLOUDS BELOW 12,000 FEET WITH NO
SIGNIFICANT WEATHER AND/OR OBSTRUCTION TO VISIBILITY.

MIZ047>049-052>055-059>063-066>070-074>076-081>083-072300-
SOUTHEAST LOWER MICHIGAN

CITY           SKY/WX    TMP DP  RH WIND       PRES   REMARKS
ADRIAN         CLOUDY    32  24  72 W9G17     30.04R WCI  24
ALMA           CLOUDY    33  23  67 SW13G24   29.96S WCI  23
ANN ARBOR      CLOUDY    34  23  64 SW12      30.00R WCI  25
BAD AXE        PTCLDY    32  23  69 SW13      29.92R WCI  23
CARO           CLEAR     33  24  69 SW13G21   29.94R WCI  24
DETROIT CITY   CLOUDY    34  25  69 SW16G22   30.01R WCI  24
DETROIT        MOCLDY    33  25  72 SW15      30.03R WCI  23
FLINT          CLEAR     34  22  61 W9        29.97R WCI  27
GROSSE ILE     MOCLDY    32  24  71 SW12      30.03R WCI  23
HILLSDALE      PTCLDY    30  23  74 SW9       30.02R WCI  22
HOWELL         MOCLDY    34  23  64 SW12      29.98R WCI  25

CITY           SKY/WX    TMP DP  RH WIND       PRES   REMARKS
JACKSON        MOCLDY    33  22  63 W16       30.01R WCI  23
LAMBERTVILLE   PTCLDY    34  24  66 SW8       30.06R WCI  27
LANSING        MOCLDY    34  21  59 W17       30.00R WCI  23
LAPEER         NOT AVBL
MASON          CLOUDY    33  24  70 SW13      29.99S WCI  24
MONROE         PTCLDY    32  26  76 SW9       30.04R WCI  24
MT. CLEMENS    MOCLDY    34  25  70 SW14      29.98R WCI  25
PONTIAC        MOCLDY    35  23  61 SW10      29.96R WCI  27
PORT HOPE        N/A     34  23  64 SW13G23   29.88S WCI  25
PORT HURON     CLEAR     34  25  69 S7        29.97S WCI  28
TRI CITIES     PTCLDY    33  24  69 SW15      29.95R WCI  23
MIDLAND        CLOUDY    33  21  60 SW16G25   29.94R WCI  23
TROY           PTCLDY    35  24  65 SW9G16    30.01R WCI  28
SAGINAW HB     CLEAR     34  21  60 SW15G21   29.95S WCI  24
$$
MIZ043>046-050>051-056>058-064>065-071>073-077>080-072300-
SOUTHWEST LOWER MICHIGAN

CITY           SKY/WX    TMP DP  RH WIND       PRES   REMARKS
BATTLE CREEK   CLOUDY    32  23  69 W14       30.03R WCI  22
BENTON HARBOR  CLOUDY    33  23  66 SW14G24   30.06R WCI  23
BIG RAPIDS     CLOUDY    31  22  67 W10G18    29.93R WCI  23
COLDWATER      PTCLDY    32  21  65 W13       30.04R WCI  22
FREMONT        CLOUDY    31  20  63 W13G18    29.97R WCI  21
HOLLAND        CLOUDY    34  25  69 W20G28    30.02R WCI  23
GRAND RAPIDS   CLOUDY    32  24  72 SW18      30.00S WCI  20
IONIA          CLOUDY    32  24  72 SW15G23   29.98S WCI  22
KALAMAZOO      CLOUDY    32  21  64 SW12G21   30.04R WCI  23
LUDINGTON      CLOUDY    29  21  73 W15       29.96R WCI  17
MARSHALL       CLOUDY    32  24  70 SW9       30.02R WCI  24
MOUNT PLEASANT CLOUDY    32  22  67 SW14G21   29.94R WCI  22
MUSKEGON       CLOUDY    33  24  69 W16G22    30.01R WCI  23
SOUTH HAVEN    MOCLDY    33  24  69 SW10      30.05R WCI  25
$$
MIZ016>042-072300-
NORTHERN LOWER MICHIGAN

CITY           SKY/WX    TMP DP  RH WIND       PRES   REMARKS
ALPENA         PTCLDY    31  17  56 VRB6G18   29.84R WCI  25
BEAVER ISLAND  CLOUDY    29  20  69 W24G31    29.81R WCI  15
BELLAIRE       CLOUDY    30  21  69 SW12G22   29.88R WCI  20
CADILLAC       CLOUDY    26  19  75 SW14G21   29.88R WCI  14
CHARLEVOIX     CLOUDY    31  20  65 SW22      29.86S WCI  18
FRANKFORT      CLOUDY    30  22  72 W10G23    29.91S WCI  21
GAYLORD        CLOUDY    27  17  66 W22       29.82R WCI  13
GRAYLING       CLOUDY    28  20  70 W15G21    29.86R WCI  17
HARBOR SPRINGS CLOUDY    31  22  70 SW17G32   29.81S WCI  19
HOUGHTON LAKE  CLOUDY    29  19  66 W17G29    29.88R WCI  17
MANISTEE       CLOUDY    28  21  75 W15G21    29.94R WCI  16
OSCODA         PTCLDY    33  18  55 MISG      29.86S
PELLSTON       FLURRIES  30  19  63 W12G20    29.81R WCI  20
ROGERS CITY    CLOUDY    31  18  59 W14G23    29.83R WCI  21
TRAVERSE CITY  FLURRIES  30  19  63 SW12G21   29.89R WCI  20
$$
MIZ007>008-015-072300-
EASTERN UPPER MICHIGAN

CITY           SKY/WX    TMP DP  RH WIND       PRES   REMARKS
MACKINAC ISLAN CLOUDY    30  20  66 W22G36    29.78R WCI  17
NEWBERRY       CLOUDY    25  14  63 W10G16    29.77R WCI  14
MUNISING         N/A     26  12  55 VRB7G20   29.80R WCI  18
$$
MIZ004>006-011>014-085-072300-
CENTRAL UPPER MICHIGAN

CITY           SKY/WX    TMP DP  RH WIND       PRES   REMARKS
MANISTIQUE     CLOUDY    25  12  58 W7        29.81R WCI  17
$$
MIZ001>003-009>011-084-072300-
WESTERN UPPER MICHIGAN

CITY           SKY/WX    TMP DP  RH WIND       PRES   REMARKS
$$

ABBREVIATIONS USED IN REMARKS
   TC - TEMPERATURE IN CELSIUS
  WCI - WIND CHILL INDEX
   HX - HEAT INDEX
  VSB - VISIBILITY




USA.gov is the U.S. government's official web portal to all federal, state and local government web resources and services.